Regional Weather Roundup
Issued by NWS

Home | Current Version | Previous Version | Text Only | Print | Product List | Glossary On
Versions: 1 2 3 4 5 6 7 8 9 10 11 12 13 14 15 16 17 18 19 20 21 22 23 24 25 26 27 28 29 30 31 32 33 34 35 36 37 38 39 40 41 42 43 44 45 46 47 48 49 50
000
ASUS44 KFWD 040903
RWRTX
NORTH TEXAS HOURLY WEATHER ROUNDUP
NATIONAL WEATHER SERVICE FORT WORTH TX
300 AM CST WED MAR 04 2015

NOTE: "FAIR" INDICATES FEW OR NO CLOUDS BELOW 12,000 FEET WITH NO
SIGNIFICANT WEATHER AND/OR OBSTRUCTIONS TO VISIBILITY.

TXZ118-119-041000-
DALLAS/FORT WORTH METROPLEX

CITY           SKY/WX    TMP DP  RH WIND       PRES   REMARKS
DFW AIRPORT    DRZL/FOG  51  51 100 NW3       29.86R VSB<1/4
DALLAS LOVE    FOG       52  52 100 SE3       29.85R VSB 1/2
FTW MEACHAM    CLOUDY    53  50  89 CALM      29.84R FOG
DAL-EXECUTIVE  FOG       51  51 100 S5        29.84S VSB 1/4
FTW-ALLIANCE   DRZL/FOG  50  50 100 N6        29.86R VSB 1
FTW-SPINKS     HVY RAIN  52  51  97 CALM      29.86R VSB 3/4
ARLINGTON      FOG       53  50  89 CALM      29.84S VSB 1/2
GRAND PRAIRIE  CLOUDY    52  52 100 CALM      29.86S VSB 1/2
ADDISON        FOG       53  53 100 CALM      29.87R VSB 1
MESQUITE       CLOUDY    51  50  97 CALM      29.85S VSB 1/4
LANCASTER      FOG       51  49  95 CALM      29.86S VSB 1/2
$$

TXZ091>094-102>105-117-120-121-131>134-041000-
NORTH CENTRAL TEXAS

CITY           SKY/WX    TMP DP  RH WIND       PRES   REMARKS
SHRMAN/DENISON DRIZZLE   48  48 100 N6        29.87R
GAINESVILLE    CLOUDY    47  47  99 N5        29.89R FOG
BOWIE          DRIZZLE   48  48 100 CALM      29.86F
BRIDGEPORT     FOG       50  50 100 E3        29.88R VSB 1/4
DECATUR        LGT RAIN  48  48 100 CALM      29.87R VSB 3/4
DENTON         CLOUDY    49  48  97 CALM      29.87R FOG
MCKINNEY       FOG       49  49 100 CALM      29.85S VSB 3/4
GREENVILLE     CLOUDY    50  48  93 CALM      29.85F FOG
TERRELL        FOG       54  53  97 CALM      29.85F VSB 1/4
WAXAHACHIE     FOG       51  51 100 CALM      29.86R VSB 1/2
CLEBURNE       CLOUDY    54  54 100 CALM      29.85F
GRANBURY       CLOUDY    52  51  95 CALM      29.85F FOG
$$

TXZ083>090-098>101-113>116-127>130-139>142-154-155-041000-
WESTERN NORTH TEXAS

CITY           SKY/WX    TMP DP  RH WIND       PRES   REMARKS
WICHITA FALLS  CLOUDY    46  45  96 N24       29.90R FOG     WCI  38
WF-KICKAPOO    LGT RAIN  50  49  97 N15       29.89S VSB 1/2
VERNON         CLOUDY    44  37  77 E14       29.87F WCI  37
ABILENE        CLOUDY    51  49  92 CALM      29.83F
ABILENE-DYESS  LGT RAIN  50  47  90 S3        29.82F
GRAHAM         LGT RAIN  50  50 100 CALM      29.82F
MINERAL WELLS  FOG       50  49  96 CALM      29.83S VSB 1/4
STEPHENVILLE   CLOUDY    54  52  94 CALM      29.86F
COMANCHE       CLOUDY    55  55 100 SW3       29.84S
BROWNWOOD      MOCLDY    55  55 100 CALM      29.85S
COLEMAN        LGT RAIN  53  53 100 S5        29.84S
BRADY          CLOUDY    55  55 100 SW3       29.84R
$$

TXZ143>147-156>162-174-175-041000-
CENTRAL TEXAS

CITY           SKY/WX    TMP DP  RH WIND       PRES   REMARKS
WACO           FOG       54  54 100 N3        29.84R VSB 1/4
WACO-MCGREGOR  CLOUDY    61  55  82 S5        29.85S VSB 1
HILLSBORO      FOG       55  55  97 CALM      29.85S VSB 1/2
CORSICANA      FOG       54  52  93 N3        29.86R VSB 1/2
MEXIA          FOG       58  58  99 S3        29.83S VSB 1/4
HEARNE         CLOUDY    64  63  97 CALM      29.85F FOG
CAMERON        FOG       58  58  99 CALM      29.83F VSB 1/2
TEMPLE         CLOUDY    57  55  94 S5        29.83S VSB 1/4
KILLEEN        CLOUDY    61  60  99 S8        29.83S FOG
KILLEEN-SKYLRK CLOUDY    61  57  88 S5        29.82R
FORT HOOD      CLOUDY    61  61  98 S8        29.82S
GATESVILLE     CLOUDY    61  61 100 S3        29.86S FOG
HAMILTON       CLOUDY    60  60 100 SW5       29.85F
LAMPASAS       CLOUDY    60  59  95 S5        29.83F
$$

TXZ095>097-106>112-122>126-135>138-148>153-164>167-041000-
EAST TEXAS

CITY           SKY/WX    TMP DP  RH WIND       PRES   REMARKS
PARIS          CLOUDY    46  45  93 CALM      29.87R VSB 1/2
SULPHUR SPRNGS CLOUDY    49  49 100 CALM      29.87F FOG
MOUNT PLEASANT CLOUDY    52  52  98 CALM      29.87S
GILMER         FOG       57  57 100 CALM      29.85F VSB 1/4
MINEOLA        FOG       55  55 100 CALM      29.85F VSB 1/4
TYLER          CLOUDY    59  57  93 CALM      29.84F FOG
LONGVIEW       CLOUDY    64  61  90 S6        29.85F
MARSHALL       CLOUDY    68  65  90 S3        29.88F
ATHENS         CLOUDY    55  55 100 CALM      29.83F FOG
PALESTINE      CLOUDY    65  64  99 S5        29.85F
JACKSONVILLE   CLOUDY    65  64  96 S7        29.87F FOG
HENDERSON      CLOUDY    65  64  96 CALM      29.87S
NACOGDOCHES    CLOUDY    64  63  94 SE5       29.87F
LUFKIN         CLOUDY    67  64  90 SE3       29.86S FOG
$$

SUPPLEMENTAL OBSERVATIONS (CENTRAL)

CITY           SKY/WX    TMP DP  RH WIND       PRES   REMARKS
$$

SUPPLEMENTAL OBSERVATIONS (WEST)

CITY           SKY/WX    TMP DP  RH WIND       PRES   REMARKS
$$

SUPPLEMENTAL OBSERVATIONS (EAST)

CITY           SKY/WX    TMP DP  RH WIND       PRES   REMARKS
$$

SUPPLEMENTAL OBSERVATIONS ARE A COLLECTION OF AUTOMATED INSTRUMENTS
THAT ARE MAINTAINED BY A VARIETY OF FEDERAL AND STATE AGENCIES.
CERTAIN ELEMENTS...SUCH AS HUMIDITY VALUES AND SUSTAINED WIND
SPEEDS...MAY BE APPROXIMATED.



USA.gov is the U.S. government's official web portal to all federal, state and local government web resources and services.